Regional Weather Roundup
Issued by NWS Green Bay, WI

Home | Current Version | Previous Version | Graphics & Text | Print | Product List | Glossary Off
Versions: 1 2 3 4 5 6 7 8 9 10 11 12 13 14 15 16 17 18 19 20 21 22 23 24 25 26 27 28 29 30 31 32 33 34 35 36 37 38 39 40 41 42 43 44 45 46 47 48 49 50

436
ASUS43 KGRB 241011
RWRGRB

NORTH-CENTRAL AND NORTHEAST WISCONSIN REGIONAL WEATHER ROUNDUP
NATIONAL WEATHER SERVICE GREEN BAY WI
400 AM CST TUE JAN 24 2017

WIZ005-009-010>012-018-019-241100-
NORTH CENTRAL WISCONSIN

CITY           SKY/WX    TMP DP  RH WIND       PRES   REMARKS
IRONWOOD       CLOUDY    33  32  96 W6        29.82S
MANITOWISH WTR CLOUDY    32  32 100 W3        29.80S
ARBOR VITAE    CLOUDY    34  33  97 NW3       29.80S
EAGLE RIVER    FOG       33  33 100 W3        29.79R VSB 1/2
LAND O LAKES   CLOUDY    33  33 100 CALM      29.80S FOG
RHINELANDER    CLOUDY    34  34 100 NW6       29.80R FOG
PHILLIPS       CLOUDY    32  32 100 CALM      29.81S
ANTIGO         CLOUDY    33  33 100 NW6       29.80S FOG
TOMAHAWK       CLOUDY    32  32  99 W5        29.82R FOG
MERRILL        CLOUDY    33  33 100 NW6         N/A
$$

WIZ013-073-241100-
NORTHEAST WISCONSIN

CITY           SKY/WX    TMP DP  RH WIND       PRES   REMARKS
IRON MOUNTAIN  CLOUDY    33  32  96 NW3       29.78R
MARINETTE      NOT AVBL
OCONTO         CLOUDY    34  34  99 CALM      29.81R VSB 1/2
$$

WIZ017-030-035>037-045-241100-
CENTRAL WISCONSIN

CITY           SKY/WX    TMP DP  RH WIND       PRES   REMARKS
MEDFORD        CLOUDY    32  31  96 W6        29.81S
WAUSAU         CLOUDY    33  32  96 NW6       29.80S
MOSINEE        CLOUDY    32  32 100 NW6       29.82F
MARSHFIELD     CLOUDY    33  31  92 W6        29.81F
WISC RAPIDS    CLOUDY    33  33 100 NW7       29.83F
STEVENS POINT  CLOUDY    32  32 100 W3        29.82F
WAUPACA        CLOUDY    37  36  96 CALM      29.82S FOG
SHAWANO        CLOUDY    37  34  89 CALM      29.82R
CLINTONVILLE   CLOUDY    34  34 100 NW3       29.81S
WAUTOMA        CLOUDY    34  33  96 NW7       29.83S FOG
$$

WIZ038-039-048-051-241100-
FOX VALLEY

CITY           SKY/WX    TMP DP  RH WIND       PRES   REMARKS
NWS GREEN BAY  CLOUDY    36  35  96 W5        29.81R
APPLETON       CLOUDY    34  34 100 W8        29.80R FOG
OSHKOSH        CLOUDY    35  33  92 W6        29.81S FOG
FOND DU LAC    CLOUDY    35  32  88 W7        29.82S FOG
$$

WIZ022-050-052-241100-
EAST CENTRAL WISCONSIN

CITY           SKY/WX    TMP DP  RH WIND       PRES   REMARKS
EPHRAIM        FOG       32  32 100 W5        29.79R VSB 1/4
WASHINGTON ISL FOG       33  33 100 CALM      29.79R VSB 1/2
STURGEON BAY   FOG       32  32 100 NW3       29.81R VSB 1/4
MANITOWOC      CLOUDY    36  34  92 W7        29.81R
SHEBOYGAN      CLOUDY    35  33  92 W8        29.81R
$$

LMZ563-521-522-541>543-241100-
LAKESHORE

STATION/POSITION TIME  TEMP    WIND        PRES    VSBY  WAVE
                       AIR SEA DIR/SP/G                  HT/PER
                 (UTC) (F)     (DEG/KT/KT) (MB)    (MI)  (FT/S)
SHEBOYGAN LKSHOR 1000   36     280/ 10/ 11 1009.6R
KEWAUNEE LKSHORE 0948   35     310/  2/  5 1008.9R
NORTHPORT PIER   0940   34     280/  5/  7 1009.1R
SISTER BAY LKSHO 0905   32        CALM       N/A
MENOMINEE LKSHOR 0948   34     250/  4/  6 1008.6R
$$




USA.gov is the U.S. government's official web portal to all federal, state and local government web resources and services.